METLOCID,DATE_TIME,AVG_SWRADIN,STDDEV_SWRADIN,MIN_SWRADIN,MAX_SWRADIN,N_SWRADIN,AVG_SWRADOUT,STDDEV_SWRADOUT,MIN_SWRADOUT,MAX_SWRADOUT,N_SWRADOUT,AVG_THMIR,STDDEV_THMIR,MIN_THMIR,MAX_THMIR,N_THMIR,AVG_NETRAD,STDDEV_NETRAD,MIN_NETRAD,MAX_NETRAD,N_NETRAD,N_COMMENTS
CAAM,12/1/94,427.032,159.8098185,46.5,652.3,25,317.688,110.528738,155.6,486.3,25,,,,,0,22.0892,40.70940278,-34.52,86.28,25,0
CAAM,12/2/94,431.1166667,181.0541604,84,684.3,72,331.1736111,138.7612297,134.4,526,72,,,,,0,9.703194444,45.54680245,-43.16,77.67,72,0
CAAM,12/3/94,370.7535211,157.7787772,102.1,844.5,71,284.8633803,122.4092133,74.3,645,71,,,,,0,9.953943662,43.23105572,-51.8,138.01,71,1
CAAM,12/4/94,242.7375,173.4685598,53.5,843,72,188.1375,137.0663039,39.9,661.1,72,,,,,0,19.05652778,24.91276194,-17.26,112.15,72,0
CAAM,12/5/94,364.8291667,159.7817662,61.5,694,72,283.4097222,124.1063051,48.3,542.3,72,,,,,0,10.54027778,34.64010205,-43.16,77.63,72,0
CAAM,12/6/94,407.6277778,202.2549961,74.2,843.4,72,308.9152778,144.7039646,81.3,624.1,72,,,,,0,22.03777778,48.61821111,-43.13,137.98,72,0
CAAM,12/7/94,411.0347222,186.7272879,174.9,700.4,72,285.3515625,169.9606135,0,505.4,64,,,,,0,17.72444444,52.44233678,-43.13,112.13,72,8
CAAM,12/8/94,267.8125,127.3284993,83.2,495.9,72,58.378,39.72939738,0,124.4,50,,,,,0,0.381111111,0.030514626,0.31,0.43,72,22
CAAM,12/9/94,267.7791667,111.8534264,65.7,524.1,72,56.97540984,44.50130955,0,184.7,61,,,,,0,0.443055556,0.050758719,0.34,0.51,72,11
CAAM,12/10/94,281.6944444,121.1410223,64.8,447.9,72,88.72391304,44.21813195,0,146.6,46,,,,,0,0.450277778,0.03692292,0.37,0.57,72,26
CAAM,12/11/94,278.9611111,106.3913802,132.6,432.2,72,94.34680851,50.53587985,0,163.8,47,,,,,0,0.467083333,0.028256247,0.41,0.53,72,25
CAAM,12/12/94,381.9507042,198.1183989,131.5,697.6,71,224.6792453,141.5161643,0,417.5,53,,,,,0,46.35802817,66.72621737,-68.93,163.74,71,19
CAAM,12/13/94,377.3722222,169.9583124,79.8,817.8,72,224.4388889,103.1983753,45.8,492.4,72,,,,,0,54.22277778,63.6774854,-34.47,224.07,72,0
CAAM,12/14/94,189.4555556,104.1596282,48.6,433.6,72,109.6180556,60.66714619,28.5,251.1,72,,,,,0,38.32861111,31.67089744,-17.25,112.09,72,0
CAAM,12/15/94,253.95,175.6822027,52,750.6,72,151.2222222,102.9482657,30.5,436.6,72,,,,,0,49.92388889,52.88979466,-34.5,198.22,72,0
CAAM,12/16/94,242.1763889,150.5800517,67.7,585.3,72,181.0625,109.8527419,42.3,452.9,72,,,,,0,33.77111111,37.25421279,-8.63,155.2,72,0
CAAM,12/17/94,158.2388889,71.0717839,59.3,340.2,72,115.9847222,53.95446609,37.5,252.4,72,,,,,0,17.00833333,12.94054715,0,51.73,72,0
CAAM,12/18/94,211.0041667,107.0931823,45.1,418.3,72,159.8611111,80.35813246,31.9,315.6,72,,,,,0,26.8275,23.13497497,-60.37,68.98,72,0
CAAM,12/19/94,424.4055556,197.9273717,63.8,772.2,72,316.6375,147.2617297,48.6,566.6,72,,,,,0,20.94944444,56.78378612,-181.04,120.71,72,0
CAAM,12/20/94,378.0680556,212.5626561,79.4,839.9,72,275.6444444,161.01964,56.2,605.8,72,,,,,0,33.65444444,53.96054463,-51.74,172.48,72,0
CAAM,12/21/94,243.475,115.7635324,67.4,509.3,72,158.0402778,76.25589363,42,344.1,72,,,,,0,35.83763889,33.23810966,-60.4,94.93,72,0
CAAM,12/22/94,265.9791667,165.0786769,62.2,658.4,72,162.2166667,101.3313905,38.9,399.6,72,,,,,0,47.55694444,43.87435266,-8.63,163.85,72,0
CAAM,12/23/94,300.7708333,203.4745424,66,889.2,72,206.4569444,144.6608718,39.2,644.6,72,,,,,0,28.51902778,46.99005088,-112.15,155.26,72,0
CAAM,12/24/94,327.3625,153.6245235,128.4,793,72,225.6388889,111.9043701,81.2,510.1,72,,,,,0,21.56208333,49.25843761,-43.13,198.42,72,0
CAAM,12/25/94,309.8444444,155.7562568,103.8,888.8,72,199.2013889,104.1456922,60.1,531.2,72,,,,,0,36.29805556,55.02623279,-43.12,284.68,72,0
CAAM,12/26/94,377.4152778,224.6079292,67.7,774.1,72,221.1097222,132.3420644,43.1,449.7,72,,,,,0,59.29583333,73.31190464,-77.61,207.01,72,0
CAAM,12/27/94,394.5791667,190.3039918,107.9,798.7,72,228.1333333,110.6687011,59.7,444.5,72,,,,,0,71.84041667,67.45610294,-17.25,232.73,72,0
CAAM,12/28/94,206.2958333,147.2863575,46.1,542.2,72,125.8652778,82.97599035,26,302.3,72,,,,,0,32.92722222,47.22371546,-25.87,137.91,72,0
CAAM,12/29/94,333.0194444,196.4135215,64.8,772.9,72,229.3375,132.747641,43.7,485.2,72,,,,,0,34.11458333,55.79194432,-60.33,198.25,72,0
CAAM,12/30/94,399.1166667,214.51046,63.5,683,72,254.0638889,134.8467668,41.6,426.9,72,,,,,0,50.73680556,72.4082583,-120.65,163.69,72,0
CAAM,12/31/94,183.2888889,93.85885951,42,466.7,72,113.1333333,56.60365041,28.1,282.3,72,,,,,0,25.62652778,32.4851561,-51.72,120.69,72,0
CAAM,1/1/95,421.1708333,187.1987002,50,676.7,72,272.9930556,120.6725932,32.3,435.6,72,,,,,0,53.97125,61.73281539,-34.5,155.07,72,0
CAAM,1/2/95,387.8416667,198.0124443,45.1,719.9,72,247.6375,126.8647649,28.1,450.9,72,,,,,0,49.19166667,64.97824501,-34.48,172.39,72,0
CAAM,1/3/95,192.4986111,162.2526855,26.7,611.1,72,137.2194444,120.6586451,17,458,72,,,,,0,25.16930556,28.51831847,-8.63,103.54,72,0
CAAM,1/4/95,249.1,166.3526316,32.3,633.8,72,171.0569444,115.045174,23.6,432.3,72,,,,,0,28.87486111,31.75493281,-8.63,112.13,72,0
CAAM,1/5/95,334.1450704,192.0052557,97.9,676,71,229.9638889,140.5763872,66.7,618.5,72,,,,,0,43.59513889,52.62229306,-25.89,241.47,72,1
CAAM,1/6/95,272.6222222,130.8546395,73.6,691.9,72,182.7222222,86.95237036,48.2,472.4,72,,,,,0,33.89819444,39.67317628,-34.51,146.58,72,0
CAAM,1/7/95,392.0291667,205.2335224,52,659.1,72,294.6652778,154.3419873,47.2,502.4,72,,,,,0,23.94930556,43.39058122,-120.67,86.21,72,0
CAAM,1/8/95,410.9027778,174.8878264,69.6,656.3,72,300.9361111,119.7924888,134.2,474.4,72,,,,,0,24.055,52.60995937,-43.1,103.42,72,0
CAAM,1/9/95,416.0291667,174.997478,71.3,657.3,72,292.7055556,115.0009074,130.7,455.6,72,,,,,0,32.42916667,57.55035898,-43.1,120.65,72,0
CAAM,1/10/95,410.3583333,172.7227712,45.1,649.4,72,273.3666667,110.0423516,54.4,429.4,72,,,,,0,39.85875,62.95274248,-60.33,137.89,72,0
CAAM,1/11/95,318.8597222,186.0980505,38.5,697.8,72,205.6777778,124.6713914,26,448.2,72,,,,,0,38.42902778,54.09190716,-68.96,155.15,72,0
CAAM,1/12/95,162.9375,87.44447806,30.5,417.1,72,104.3416667,56.66093806,19.4,269.3,72,,,,,0,23.96402778,24.49456396,-8.63,94.89,72,0
CAAM,1/13/95,226.4527778,149.1497111,34.7,654.1,72,152.8125,97.47894672,22.6,447.6,72,,,,,0,30.07236111,39.41315997,-17.27,138.03,72,0
CAAM,1/14/95,324.2305556,223.1778067,44.8,824.7,72,270.1666667,182.4858304,37.5,653.4,72,,,,,0,8.500833333,33.74049081,-60.37,112.11,72,0
CAAM,1/15/95,304.6055556,184.98639,52.4,732.6,72,244.1680556,150.7017134,43,586.3,72,,,,,0,-0.006388889,36.3288182,-60.38,86.24,72,0
CAAM,1/16/95,301.7291667,170.4647165,67.3,707.1,72,229.2472222,130.3923667,50.7,544.5,72,,,,,0,11.12958333,42.16063512,-51.78,112.09,72,0
CAAM,1/17/95,372.3416667,186.6367163,70.8,636.4,72,276.5861111,139.0839004,51.7,470.1,72,,,,,0,15.56291667,45.94512362,-86.22,86.24,72,0
CAAM,1/18/95,319.0263889,185.3044187,64.2,768.4,72,233.4722222,136.1326892,45.8,552.6,72,,,,,0,15.92722222,51.25958884,-51.78,146.63,72,0
CAAM,1/19/95,226.3513889,132.3120032,46.2,516.2,72,159.0361111,92.68975255,32.6,355.9,72,,,,,0,16.64694444,33.30980495,-34.52,86.25,72,0
CAAM,1/20/95,288.0013889,221.1870367,38.9,897.5,72,204.5027778,158.302069,28.1,635,72,,,,,0,20.59847222,55.08899882,-129.36,189.73,72,0
CAAM,1/21/95,353.0288889,180.5160867,145.4,615.9,45,260.5,129.749577,101.3,434.1,45,,,,,0,1.517555556,59.35904404,-60.4,94.85,45,0
CAAM,11/20/95,,,,,0,,,,,0,-7.410666667,1.36321105,-9.57,-4.9,30,79.70733333,85.86686651,-92.2,233.7,30,30
CAAM,11/21/95,,,,,0,,,,,0,-7.487916667,2.788648764,-11.55,-2.82,96,92.54864583,111.6644881,-108.3,298,96,96
CAAM,11/22/95,,,,,0,,,,,0,-5.6975,1.652381376,-8.71,-3.38,96,49.53614583,63.6366309,-111.3,190.8,96,96
CAAM,11/23/95,,,,,0,,,,,0,-4.909166667,1.671856621,-7.62,-1.17,96,51.86854167,59.58199938,-58.42,268.5,96,96
CAAM,11/24/95,,,,,0,,,,,0,-2.712708333,2.178900485,-6.44,0.3,96,105.3304167,111.1959974,-85.2,270,96,96
CAAM,11/25/95,287.31,76.08072513,181.4,420.2,20,158.91,41.98927056,97.5,220.3,20,-2.098854167,1.816703707,-6.2,0.66,96,100.6671875,115.6188374,-157.8,268.8,96,76
CAAM,11/26/95,377.6104167,178.6402586,61.5,626.6,96,202.0583333,91.45677226,38.7,330,96,-3.473125,1.564784372,-6.83,-0.14,96,100.90125,116.1320387,-151.3,269.4,96,0
CAAM,11/27/95,291.8822917,129.0061826,68.1,538.3,96,153.3958333,63.49396145,36.7,276.8,96,-4.7171875,2.015313847,-8.02,-0.96,96,84.4096875,94.07211943,-135,237.6,96,0
CAAM,11/28/95,314.909375,187.1667751,34.7,675.1,96,167.3875,98.10508464,20.3,354.9,96,-4.602604167,1.95067397,-8.19,-1.74,96,77.22729167,109.007673,-121.5,308.2,96,0
CAAM,11/29/95,321.0875,182.5078664,58,864,96,169.8520833,95.17749732,32.4,448,96,-3.667708333,2.044904053,-7.7,-0.33,96,82.56177083,103.1840149,-122.5,416.2,96,0
CAAM,11/30/95,378.9729167,201.8456646,43.7,660.5,96,276.8510417,148.731048,23.2,483.9,96,-7.1478125,2.668158523,-14.09,-3.19,96,36.9646875,65.63086912,-151.4,140.9,96,0
CAAM,12/1/95,398.865625,178.8594655,67.1,654.7,96,280.6666667,121.9989126,100.2,458.5,96,-5.944895833,2.054126524,-9.97,-1.62,96,38.41757895,82.0481963,-137.2,163.5,95,1
CAAM,12/2/95,398.69375,179.31213,50.4,648.3,96,266.9833333,115.7418367,63.2,435.6,96,-4.2071875,2.329503992,-8.12,-0.36,96,52.59822917,90.77337264,-197.4,189.9,96,0
CAAM,12/3/95,358.6614583,211.0962277,41.1,661.9,96,218.859375,120.6265368,28.5,394.2,96,-3.3665625,1.957951576,-7.5,0.27,96,72.69416667,102.7079024,-70.5,234.1,96,0
CAAM,12/4/95,353.2385417,226.122531,34.8,663.9,96,193.0895833,118.9623421,22.2,355.9,96,-3.782604167,1.796782648,-6.94,-0.57,96,94.86635417,127.9525438,-70.8,296.7,96,0
CAAM,12/5/95,302.8552083,142.1580506,67.7,565.5,96,158.3427083,73.95195132,36.4,294.7,96,-3.7040625,1.402719598,-6.45,-1.75,96,96.18260417,76.28112634,-38.74,213,96,0
CAAM,12/6/95,306.7447917,167.0208804,78.6,705,96,160.9145833,88.28386868,40.9,367.3,96,-3.141666667,1.759025248,-6.44,0.21,96,90.41708333,80.34821204,-12.77,311,96,0
CAAM,12/7/95,242.4760417,129.4199438,68,482.1,96,124.665625,66.24695239,35.8,247.4,96,-3.915520833,0.897257658,-5.58,-2.17,96,78.43947917,63.97265849,-18.02,196.5,96,0
CAAM,12/8/95,373.990625,203.8969993,51.2,759,96,198.36875,106.2137798,28.1,396.3,96,-3.547395833,2.336959448,-7.53,-0.22,96,109.0391667,115.3042642,-78.5,330,96,0
CAAM,12/9/95,408.215625,191.0573335,99.5,670.4,96,215.7958333,97.63001147,52.8,350.9,96,-2.354375,1.374222699,-5.43,-0.34,96,128.0875,113.9076763,-110.4,298.6,96,0
CAAM,12/10/95,299.9572917,173.7412109,82.3,666.2,96,155.9666667,91.44036154,42.6,345.6,96,-0.977395833,1.198589737,-3.13,0.67,96,100.0990625,83.34924246,-14.16,310.8,96,0
CAAM,12/11/95,213.0927083,124.2477798,22.4,662.7,96,114.8760417,68.22386948,12.7,374,96,-0.528526316,0.455650035,-1.45,1.09,95,65.41208333,49.30074168,0.65,241.9,96,1
CAAM,12/12/95,312.7104167,180.5456994,65.1,681.6,96,168.0489583,92.11921452,33.9,355.8,96,-1.009895833,0.784585033,-2.43,0.14,96,111.8333333,89.85701929,-6.57,324.1,96,0
CAAM,12/13/95,270.803125,161.1007867,79.1,713,96,205.0416667,121.0942483,61.3,565.2,96,-1.871875,0.959606622,-3.86,0.94,96,32.33458333,41.2779426,-42.01,163.3,96,0
CAAM,12/14/95,295.53125,140.3950721,109.1,628,96,204.6385417,97.64544387,78.7,442.8,96,-1.64125,1.118114249,-4.13,0.13,96,43.956875,50.80980022,-50.58,153.2,96,0
CAAM,12/15/95,353.484375,172.0559275,105,726,96,241.8177083,116.8307341,74.1,491.8,96,-2.033541667,1.458338622,-5.61,0.56,96,44.36385417,77.38599135,-199.6,248.3,96,0
CAAM,12/16/95,309.1614583,183.0128384,49.9,678.9,96,198.834375,119.1190557,33.8,449.9,96,-1.903333333,1.072463634,-3.97,1.02,96,82.50552083,64.89780453,-19.34,203.7,96,0
CAAM,12/17/95,253.2083333,117.5916732,85.8,655.1,96,153.3645833,72.67889867,51.5,403.6,96,-2.736666667,0.819667027,-4.11,-0.79,96,64.86875,41.39107593,5.74,206.5,96,0
CAAM,12/18/95,238.8479167,189.1123331,72.2,684.4,96,151.8354167,121.7766039,49.1,437.6,96,-3.152291667,1.759199865,-6.42,0.42,96,48.1709375,65.12494387,-51.69,227.6,96,0
CAAM,12/19/95,351.1291667,245.0816744,54.7,680.5,96,207.7645833,146.2975627,32.4,407.8,96,-2.2971875,1.143453406,-4.08,-0.69,96,104.6428125,91.75911349,-12.73,249.3,96,0
CAAM,12/20/95,398.2791667,222.5924607,62.8,691.7,96,231.8864583,130.796511,37.1,406.6,96,-1.4909375,0.700680989,-2.69,-0.13,96,114.3927083,98.778785,-143.9,265.5,96,0
CAAM,12/21/95,337.1542553,196.6852596,51.9,833,94,201.0635417,119.0751069,29.4,507.3,96,-1.1125,1.174572711,-4.25,0.97,96,97.304375,109.3579839,-63.69,432.8,96,2
CAAM,12/22/95,246.8677083,151.8271576,45.5,647.7,96,138.9833333,85.77514383,25.9,368,96,-0.685,0.632949653,-1.99,0.71,96,77.56895833,67.18486226,-3.75,250.2,96,0
CAAM,12/23/95,351.8802083,201.4761036,73.1,778,96,205.971875,116.338447,41.3,449,96,-0.949583333,0.991726742,-4.13,0.24,96,98.840625,104.224302,-104.2,332.6,96,0
CAAM,12/24/95,383.2458333,194.3198145,79,698.8,96,240.2697917,121.0008205,91,437.7,96,-1.4228125,0.963753302,-5.4,0.27,96,84.659375,94.03173857,-28.12,264.6,96,0
CAAM,12/25/95,291.6875,149.1329532,83.2,580.8,96,184.525,94.33004768,52.3,368.2,96,-1.1678125,0.890016207,-3.21,0.24,96,63.80447917,56.11812811,-26.22,172.4,96,0
CAAM,12/26/95,221.4291667,122.3924834,44,465.8,96,141.79375,77.64427903,28.7,293.7,96,-1.017395833,0.896565664,-2.38,0.48,96,44.3778125,42.90788393,-8.34,136.2,96,0
CAAM,12/27/95,376.59375,202.319482,60.9,681.4,96,254.0666667,131.6534571,63.8,450.3,96,-2.210833333,1.486008902,-5.02,0.21,96,54.01864583,87.15180703,-101.4,213.2,96,0
CAAM,12/28/95,366.690625,198.1539073,74.7,794,96,248.5010417,128.5152037,52.9,525.9,96,-2.2559375,1.788894147,-6.61,0.69,96,53.71989583,87.6820112,-97.4,263.6,96,0
CAAM,12/29/95,280.9895833,208.1416954,42.4,860,96,189.0375,135.4436144,29.1,551,96,-2.2334375,1.26903762,-4.91,0.95,96,41.27072917,70.08743963,-45.12,278.7,96,0
CAAM,12/30/95,296.0606383,229.5087049,34.3,872,94,227.3340659,159.7295702,24.6,656.2,91,-3.862916667,1.588794258,-7.74,-1.16,96,17.5421875,56.63476286,-198.2,163.4,96,5
CAAM,12/31/95,373.3021053,170.5273529,85.2,792,95,289.2873684,120.7808797,68.4,589.9,95,-4.001770833,1.899405444,-8.02,2.23,96,15.76831579,64.36789499,-126.1,210.1,95,2
CAAM,1/1/96,254.5583333,115.1733034,57.9,708,96,196.8729167,88.91420996,99.2,542.5,96,-4.528958333,1.148185277,-6.75,-1.43,96,13.18614583,43.4537449,-65.84,141.2,96,0
CAAM,1/2/96,279.753125,150.8567414,73.5,597.2,96,214.3520833,116.4733889,55.4,461.3,96,-4.642291667,0.673867829,-6.07,-3.16,96,33.19916667,26.99936926,-12.86,88.8,96,0
CAAM,1/3/96,277.978125,163.280239,62.1,713,96,212.6270833,125.3757204,47.4,545.2,96,-4.795208333,1.085167927,-7.8,-2.54,96,31.22708333,32.80052519,-30.92,150.5,96,0
CAAM,1/4/96,302.1958333,168.3837303,97.6,840,96,229.590625,122.4497148,74.8,622.8,96,-5.113020833,1.854614796,-9.1,-1.63,96,29.22416667,55.37942924,-70.9,221.5,96,0
CAAM,1/5/96,236.0583333,135.3063539,70.6,536,96,171.1708333,98.33384481,50,393.3,96,-5.19625,0.767517187,-6.38,-3.75,96,34.93291667,36.2581201,-13.85,108.7,96,0
CAAM,1/6/96,277.1989583,167.6091321,58.7,677.9,96,198.871875,121.1101827,41.6,487.1,96,-5.482395833,1.077574025,-7.93,-2.71,96,37.0025,39.31422038,-24.23,147.4,96,0
CAAM,1/7/96,242.246875,137.9012843,63.4,494.8,96,167.4114583,95.67301426,44.5,345.1,96,-4.5,1.318974881,-6.4,-2.38,96,43.91208333,41.01617801,-8.89,117.1,96,0
CAAM,1/8/96,373.3135417,195.7311629,41.3,663.8,96,262.1791667,131.316455,71.9,460.8,96,-4.745208333,1.787848445,-8.77,-1.26,96,54.36291667,73.51587685,-57.96,200.1,96,0
CAAM,1/9/96,225.6375,120.8773839,70.1,564,96,153.5645833,80.10209667,48.7,381.9,96,-3.215625,1.428273019,-6.2,-0.86,96,31.9778125,41.91278715,-42.35,155.3,96,0
CAAM,1/10/96,335.6395833,235.4218277,51.1,880,96,228.871875,161.1789223,35.6,599.2,96,-1.853058824,1.923553893,-5.63,1.47,85,61.346875,84.53649035,-179.2,249.6,96,0
CAAM,1/11/96,389.6882292,191.076627,48.99,655.4,96,263.5427083,118.7532876,88.7,434.1,96,,,,,0,65.17489583,92.08613748,-143.2,203.3,96,55
CAAM,1/12/96,229.934375,90.72085796,51,558.7,96,151.9489583,58.81642627,33.4,367.4,96,,,,,0,37.29833333,49.42328875,-56.14,141.2,96,96
CAAM,1/13/96,169.1427083,107.9503909,37.4,485.4,96,114.1177083,74.35119366,24.6,342.7,96,,,,,0,33.39520833,31.14077692,-4.46,115.1,96,96
CAAM,1/14/96,207.0135417,143.5924295,37.9,601.4,96,138.8729167,95.81828139,26.1,410.2,96,,,,,0,36.65083333,53.24948256,-52.17,144.4,96,96
CAAM,1/15/96,169.8125,86.89194651,44.9,428.4,96,113.8864583,58.39026527,30.8,291.3,96,,,,,0,33.82135417,27.1058323,-47.98,82.2,96,96
CAAM,1/16/96,253.646875,194.5484613,56.3,776,96,172.1135417,134.3810353,37.8,531.4,96,,,,,0,50.08645833,55.2963222,-5.98,233.8,96,96
CAAM,1/17/96,271.996875,181.5809064,40.6,768,96,179.459375,119.8658193,27.1,506.3,96,,,,,0,55.39208333,68.72151267,-133.2,273.9,96,96
CAAM,1/18/96,307.3385417,182.8730566,83.4,678.8,96,206.0260417,121.8316217,55.8,456.7,96,,,,,0,42.83572917,73.70126741,-49.89,204.6,96,96
CAAM,1/19/96,320.3822917,215.6729556,63.8,794,96,230.5041667,156.2041161,46.9,572.5,96,,,,,0,33.67489583,66.0737851,-81.4,176.1,96,96
CAAM,1/20/96,256.51875,160.2208438,44.2,652.8,96,180.6520833,111.8354731,31.9,458.9,96,,,,,0,19.16291667,60.89933297,-74.3,151.4,96,96
CAAM,1/21/96,227.6052083,139.8805824,55.5,575.1,96,167.2208333,103.8930451,39.6,435.2,96,,,,,0,18.6303125,41.17738047,-56.37,121.1,96,96
CAAM,1/22/96,289.1,200.3561061,18.6,634.1,96,200.0833333,136.0060182,13.7,435,96,,,,,0,46.46697917,69.00287707,-127.4,164.2,96,96
CAAM,1/23/96,321.0447917,183.0373852,32.7,629.8,96,221.85,124.0156603,25.8,429.1,96,,,,,0,30.84739583,78.45394751,-112.3,181.6,96,96
CAAM,1/24/96,192.634375,102.1497186,42.8,516.9,96,129.9520833,67.67989981,31.4,346.3,96,,,,,0,15.929375,53.29536113,-126.7,157.9,96,96
CAAM,1/25/96,347.9772727,188.5478709,49.5,613.7,66,238.4393939,122.6451427,64,412,66,,,,,0,30.09257576,89.52894587,-77.4,186.6,66,66
CAAM,1/26/96,319.4418519,143.5590296,67.53,558.5,27,212.6892,92.28508772,49.55,356,25,,,,,0,69.03703704,71.49013336,-66.75,191.3,27,2
CAAM,1/27/96,280.9276042,192.3419185,34.24,645.4,96,207.0298958,140.953551,26.56,475.4,96,,,,,0,49.3584375,77.13150238,-135.7,205.1,96,0
CAAM,1/28/96,277.9576042,191.9636733,23.6,608.2,96,194.6971875,133.2416079,19.09,427.8,96,,,,,0,53.77302083,83.85535142,-135.1,194.4,96,0
CAAM,1/29/96,246.3134375,164.0798991,23.66,616.7,96,176.481875,112.6683878,19.42,451,96,,,,,0,36.44385417,89.34897659,-79.5,216.5,96,0
CAAM,1/30/96,173.0405208,146.7282508,19.2,529.5,96,115.8136458,96.24209693,13.79,351.6,96,,,,,0,35.09875,64.57000675,-116.4,197.6,96,0
CAAM,1/31/96,299.8634375,175.4584482,23.76,662.1,96,206.9759375,116.3013695,18.86,425,96,,,,,0,45.78697917,94.44506264,-77.5,258.2,96,0
CAAM,2/1/96,225.2040625,166.1758132,32.48,634.8,96,149.2691667,108.6786469,23.24,415.1,96,,,,,0,50.461875,78.79164224,-58.48,240.7,96,0
CAAM,2/2/96,267.0326042,199.3879527,32,560.2,96,177.6865625,130.5456963,21.45,375.8,96,,,,,0,51.53604167,86.98453183,-78.2,190.2,96,0
CAAM,2/3/96,275.71625,182.6143008,32.39,549,96,189.091875,121.8908513,26.02,373.2,96,,,,,0,37.18166667,91.06303776,-94.3,182,96,0
CAAM,2/4/96,222.646875,159.7511609,19.01,686.1,96,152.3023958,102.6849954,14.89,422.4,96,,,,,0,31.25625,87.90652835,-86.4,294.8,96,0
CAAM,2/5/96,163.0957292,118.2769746,22.51,375.5,96,105.544375,75.73920196,15,243.1,96,,,,,0,38.975,50.94343534,-24.06,130.6,96,0
CAAM,2/6/96,231.6421875,156.2746722,23.15,531.2,96,155.1147917,104.7656445,16.07,353,96,,,,,0,35.15864583,69.21298028,-77.7,172.9,96,0
CAAM,2/7/96,259.7266667,183.8947052,17.54,526.5,96,176.7655208,119.7421969,13.5,350.2,96,,,,,0,24.01802083,94.0607573,-92.2,168.1,96,0
CAAM,2/8/96,146.1213542,142.7185385,15.75,667.2,96,103.5685417,96.2337397,12.05,441.3,96,,,,,0,3.907395833,72.05889955,-94.1,237.2,96,0
CAAM,2/9/96,235.5719792,174.1301111,20.75,499.8,96,183.5410417,133.7450316,16.73,387.2,96,,,,,0,-0.448020833,59.02739139,-108.4,106.9,96,0
CAAM,2/10/96,239.4686458,185.0061558,13.27,506.8,96,170.23,126.2256687,10.98,351.1,96,,,,,0,9.696770833,92.11327229,-100.3,155,96,0
CAAM,2/11/96,208.1922917,159.7504911,9.45,489.4,96,148.0840625,110.4535599,7.13,345.3,96,,,,,0,4.321041667,74.84695783,-91.1,146.9,96,0
CAAM,2/12/96,208.9898958,170.3061831,11.39,510.5,96,147.8576042,116.7214576,8.83,353.5,96,,,,,0,6.008854167,82.88386752,-88.4,154.2,96,0
CAAM,2/13/96,216.7613542,179.8556971,10.15,485,96,155.1020833,125.0032401,7.84,344.7,96,,,,,0,3.925104167,85.75945537,-93.1,141.7,96,0
CAAM,2/14/96,160.3277083,123.3752469,9.69,506.1,96,110.77875,79.67818932,7.46,326.5,96,,,,,0,2.684895833,77.99268921,-93.9,209,96,0
CAAM,2/15/96,206.1228125,177.3030016,8.45,466.2,96,144.3065625,119.7573295,6.33,322.4,96,,,,,0,6.004166667,89.23442978,-94.1,150.1,96,0
CAAM,2/16/96,198.0286458,185.2575524,7.33,471.4,96,138.6703125,125.3467199,5.62,327,96,,,,,0,6.950625,91.14892517,-94.5,170.2,96,0
CAAM,2/17/96,186.5101042,158.5712146,11.24,472.8,96,130.42125,107.546094,7.64,315.2,96,,,,,0,4.8609375,74.88973479,-79.2,154.8,96,0
CAAM,2/18/96,185.76875,172.2480505,8.69,446.1,96,131.3761458,117.501478,6.22,311.9,96,,,,,0,-4.716666667,83.27536566,-94.3,136.7,96,0
CAAM,2/19/96,129.63875,132.1984075,5.22,444.8,96,94.41927083,95.53471715,3.82,306.8,96,,,,,0,-11.39354167,57.33918442,-95.4,129.9,96,0
CAAM,2/20/96,135.3807292,145.4027438,2.41,415.2,96,96.04229167,104.1130054,1.7,301.5,96,,,,,0,1.4903125,48.8550015,-76,106.6,96,0
CAAM,2/21/96,167.7253125,168.6286076,3.76,426.2,96,119.0452083,118.4298805,2.81,302.1,96,,,,,0,-3.194791667,70.61788827,-88.2,120.9,96,0
CAAM,2/22/96,167.0185417,164.7990268,3.67,416.1,96,122.0897917,117.117028,2.61,302.4,96,,,,,0,-15.7625,73.5301599,-95.9,113.5,96,0
CAAM,2/23/96,112.25875,95.85455173,2.81,306.5,96,76.73375,65.34492943,2.01,208.8,96,,,,,0,-1.06375,51.52594045,-70.5,90.6,96,0
CAAM,2/24/96,141.3341667,150.297356,1.51,416.5,96,99.836875,106.4219399,1.19,299.2,96,,,,,0,8.902916667,51.93919846,-65.61,122.2,96,0
CAAM,2/25/96,83.11947917,80.00606229,1.42,221.2,96,55.97072917,52.46263551,1.2,146.4,96,,,,,0,-10.9540625,53.75765568,-77.8,70.7,96,0
CAAM,2/26/96,129.9409375,118.5411404,1,339,96,93.83895833,84.54391033,0.8,234.3,96,,,,,0,-10.80770833,52.50058792,-86.1,103.6,96,0
CAAM,2/27/96,102.9055208,116.5057502,0.37,366.6,96,70.50125,80.18792592,0.35,266.6,96,,,,,0,-3.5853125,51.02568913,-72.4,81.8,96,0
CAAM,2/28/96,124.3010417,136.4907773,0.4,401.6,96,91.19885417,97.64544859,0.36,269.8,96,,,,,0,-22.60385417,62.78865867,-91.2,142.5,96,0
CAAM,2/29/96,101.5628125,126.7531302,0.22,362.2,96,73.64729167,91.7826943,0.2,265,96,,,,,0,-23.38145833,54.26197308,-68.89,109.9,96,0
CAAM,3/1/96,98.90604167,103.6818665,0.08,327.5,96,69.078125,72.39158708,0.16,224.4,96,,,,,0,-12.37333333,48.6150459,-88.9,97.3,96,0
CAAM,3/2/96,77.04083333,93.81895729,0,286.8,96,52.2003125,63.29427139,0,198.9,96,,,,,0,3.184583333,40.9664234,-55.47,91.4,96,0
CAAM,3/3/96,73.068125,72.31919815,0.18,239.5,96,50.47541667,49.46298358,0.13,159.7,96,,,,,0,-17.08625,34.17385382,-59.1,60.08,96,0
CAAM,3/4/96,68.71927083,94.49277599,0,297.2,96,50.47260417,67.71246781,0,218.8,96,,,,,0,-34.44364583,38.77031838,-65.82,90.8,96,0
CAAM,3/5/96,35.59854167,34.55111588,0.17,117.4,96,46.50625,46.61958514,0.18,146.6,96,,,,,0,-17.6246875,31.57117279,-65.28,50.01,96,0
CAAM,3/6/96,30.69041667,30.16157911,0.03,97.7,96,70.065,69.67881724,0.08,227,96,,,,,0,-33.29177083,34.76465622,-114.2,3.62,96,0
CAAM,3/7/96,36.17895833,36.64484099,0,123,96,74.68229167,76.38356115,0,252.5,96,,,,,0,-31.23645833,36.86595097,-117.4,11.53,96,0
CAAM,3/8/96,51.71458333,83.52251384,0.01,398.9,96,54.34541667,75.27996287,0.18,240.5,96,,,,,0,-25.460625,32.87918932,-107.2,9.42,96,0
CAAM,3/9/96,59.025,64.70643181,0,186.2,96,41.340625,45.12423076,0,130.1,96,,,,,0,-8.967395833,40.18562121,-73.6,58.88,96,0
CAAM,3/10/96,59.474375,67.27794059,0,225.2,96,43.314375,48.95066147,0,174.7,96,,,,,0,-1.699791667,26.62635809,-63.94,48.97,96,0
CAAM,3/11/96,40.066875,60.95890594,0,225.7,96,34.15427083,51.15823971,0,194.3,96,,,,,0,-48.55958333,16.52998162,-62.42,16.03,96,0